Retour au catalogue

PAS 1

ActifCommunicationsGEO
NORAD 19217·PAYLOAD·🇺🇸 United States

Lancé Jun 15, 1988 depuis Guiana Space Centre

Loading…

TLE

FraisSource: Space-Track

Époque: Sep 13, 2026, 01:47 UTC

1 19217U 88051C   26256.07464323 -.00000259  00000-0  00000-0 0  9999
2 19217  14.6054   3.9867 0001445 297.4291  59.2030  0.99396906149041

Suivez PAS 1 en temps réel avec AllMySat

Download on the App Store